Manhattan, KS

9:45 AM CDT on June 28, 2017 (GMT -0500)
Manhattan Regional

Weather History for KMHK - July, 2013

Change the Weather History Date:

Sunday, July 7, 2013

  Actual Average Record
Temperature  
Mean Temperature 88 °F 79 °F  
Max Temperature 100 °F 91 °F 105 °F (2012)
Min Temperature 75 °F 67 °F 55 °F (2004)
Degree Days  
Heating Degree Days 0 0  
Month to date heating degree days 0 0  
Since 1 June heating degree days 9 11  
Since 1 July heating degree days 0 0  
Cooling Degree Days 23 14  
Month to date cooling degree days 76 92  
Year to date cooling degree days 530 462  
Since 1 June cooling degree days 394 362  
Growing Degree Days 37 (Base 50)    
Moisture  
Dew Point 63 °F    
Average Humidity 49    
Maximum Humidity 64    
Minimum Humidity 33    
Precipitation  
Precipitation 0.00 in 0.14 in 1.25 in (2011)
Month to date precipitation T 1.04  
Year to date precipitation 12.79 17.33  
Sea Level Pressure  
Sea Level Pressure 29.86 in    
Wind  
Wind Speed 11 mph (South)    
Max Wind Speed 24 mph    
Max Gust Speed 32 mph    
Visibility 10 miles    
Events Thunderstorm    
T = Trace of Precipitation, MM = Missing Value Source: NWS Daily Summary

Daily Weather History Graph

Daily Weather History Graph

Search for Another Location

Airport or City:

Trip Planner

Search our weather history database for the weather conditions in past years. The results will help you decide how hot, cold, wet, or windy it might be!

Date:

Astronomy

Jul. 07, 2013 Rise Set
Actual Time 6:07 AM CDT 8:55 PM CDT
Civil Twilight 5:35 AM CDT 9:27 PM CDT
Nautical Twilight 4:56 AM CDT 10:06 PM CDT
Astronomical Twilight 4:10 AM CDT 10:52 PM CDT
Moon 5:44 AM CDT (7/7) 8:20 PM CDT (7/7)
Length of Visible Light 15h 51m
Length of Day
14h 47m
Waning Crescent, 0% of the Moon is Illuminated
Jul 7
Waning Crescent
Jul 8
New
Jul 15
First Quarter
Jul 22
Full
Jul 29
Last Quarter

Hourly Weather History & Observations

Time (CDT) Temp. Heat Index Dew Point Humidity Pressure Visibility Wind Dir Wind Speed Gust Speed Precip Events Conditions
12:52 AM 78.1 °F - 60.1 °F 54% 29.85 in 10.0 mi South 10.4 mph - N/A   Clear
1:52 AM 78.1 °F - 61.0 °F 56% 29.85 in 10.0 mi South 8.1 mph - N/A   Clear
2:52 AM 77.0 °F - 62.1 °F 60% 29.86 in 10.0 mi South 8.1 mph - N/A   Partly Cloudy
3:52 AM 77.0 °F - 62.1 °F 60% 29.86 in 10.0 mi South 10.4 mph - N/A   Scattered Clouds
4:52 AM 75.0 °F - 63.0 °F 66% 29.88 in 10.0 mi South 5.8 mph - N/A   Partly Cloudy
5:52 AM 75.9 °F - 62.1 °F 62% 29.89 in 10.0 mi South 6.9 mph - N/A   Clear
6:52 AM 75.9 °F - 62.1 °F 62% 29.88 in 10.0 mi South 9.2 mph - N/A   Clear
7:52 AM 78.1 °F - 63.0 °F 60% 29.89 in 10.0 mi SSW 11.5 mph - N/A   Clear
8:52 AM 79.0 °F - 63.0 °F 58% 29.89 in 10.0 mi SSW 15.0 mph 20.7 mph N/A   Clear
9:52 AM 82.9 °F 84.4 °F 64.0 °F 53% 29.89 in 10.0 mi SSW 13.8 mph 23.0 mph N/A   Clear
10:52 AM 84.9 °F 85.9 °F 63.0 °F 48% 29.87 in 10.0 mi SSW 16.1 mph 23.0 mph N/A   Clear
11:52 AM 91.0 °F 91.9 °F 63.0 °F 39% 29.86 in 10.0 mi SSW 18.4 mph 26.5 mph N/A   Clear
12:52 PM 93.9 °F 95.2 °F 63.0 °F 36% 29.86 in 10.0 mi SSW 17.3 mph 27.6 mph N/A   Clear
1:52 PM 95.0 °F 97.0 °F 64.0 °F 36% 29.85 in 10.0 mi SSW 12.7 mph 26.5 mph N/A   Clear
2:52 PM 93.9 °F 96.1 °F 64.9 °F 38% 29.85 in 10.0 mi South 12.7 mph 20.7 mph N/A   Clear
3:52 PM 96.1 °F 98.3 °F 64.0 °F 35% 29.83 in 10.0 mi South 10.4 mph - N/A   Partly Cloudy
4:52 PM 99.0 °F 101.7 °F 64.0 °F 32% 29.83 in 10.0 mi SSW 17.3 mph 25.3 mph N/A   Clear
5:52 PM 96.1 °F 98.3 °F 64.0 °F 35% 29.83 in 10.0 mi South 12.7 mph 19.6 mph N/A   Clear
6:52 PM 93.9 °F 95.6 °F 64.0 °F 37% 29.82 in 10.0 mi South 6.9 mph - N/A   Clear
7:52 PM 90.0 °F 91.3 °F 64.0 °F 42% 29.83 in 10.0 mi South 6.9 mph - N/A   Clear
8:52 PM 89.1 °F 90.0 °F 63.0 °F 42% 29.83 in 10.0 mi South 6.9 mph - N/A   Clear
9:52 PM 90.0 °F 90.3 °F 62.1 °F 39% 29.85 in 10.0 mi South 12.7 mph 19.6 mph N/A   Partly Cloudy
10:52 PM 88.0 °F 87.9 °F 61.0 °F 40% 29.88 in 10.0 mi South 10.4 mph - N/A   Partly Cloudy
11:52 PM 86.0 °F 86.8 °F 63.0 °F 46% 29.91 in 10.0 mi South 8.1 mph - N/A   Overcast
11:59 PM 86.0 °F 87.3 °F 64.4 °F 48% 29.95 in 10.0 mi South 8.1 mph - N/A Thunderstorm Thunderstorm